Location: Unspecified
(0.0000°N, 0.0000°E)
Time: 13:58:32
(UTC+00:00)

XW-2D - Pass Details

Date: 12 December 2017
Orbit: 511 x 530 km, 97.5° (Epoch: 18 January)

Event Time Altitude Azimuth Distance (km) Brightness Sun altitude
Rises 05:02:02 0° 36° (NE) 2,653 ? -11.9°
Reaches altitude 10° 05:04:34 10° 54° (NE) 1,765 ? -11.3°
Maximum altitude 05:07:22 20° 101° (ESE) 1,265 ? -10.6°
Drops below altitude 10° 05:10:10 10° 149° (SSE) 1,764 ? -10.0°
Sets 05:12:42 0° 166° (SSE) 2,652 ? -9.4°
